Precipitable_Water
0.23 0.20 0.18 0.20 0.21 0.23 0.27 0.25 0.18 0.19 0.22 0.22 0.19 0.20 0.24 0.30 0.36 0.37 0.51 0.60 0.65 0.85 0.99 0.99 1.03 1.04 0.86 0.75 0.73 0.78 0.85 1.04 1.17 1.13 1.09 1.15 1.14 1.27 1.42 1.53 1.69 1.78 1.75 1.65
0.23 0.19 0.23 0.25 0.23 0.25 0.27 0.27 0.23 0.24 0.25 0.26 0.21 0.22 0.24 0.26 0.29 0.31 0.44 0.55 0.66 0.78 0.94 1.03 1.04 1.00 0.83 0.68 0.68 0.78 0.89 1.00 1.09 1.11 1.11 1.14 1.20 1.29 1.33 1.39 1.42 1.48 1.43 1.38
0.20 0.22 0.26 0.23 0.22 0.24 0.24 0.26 0.26 0.24 0.32 0.24 0.25 0.23 0.25 0.30 0.34 0.41 0.47 0.48 0.67 0.77 0.92 0.99 0.86 0.97 0.89 0.72 0.73 0.82 0.98 1.04 1.07 1.14 1.20 1.15 1.21 1.16 1.15 1.21 1.30 1.37 1.44 1.36
0.20 0.24 0.24 0.21 0.22 0.25 0.24 0.29 0.29 0.27 0.27 0.24 0.28 0.22 0.25 0.30 0.30 0.38 0.39 0.41 0.52 0.76 0.83 0.86 0.79 0.91 0.78 0.70 0.74 0.91 1.01 1.05 1.11 1.10 1.03 1.03 0.99 0.94 1.06 1.14 1.19 1.12 1.03 0.91
0.21 0.28 0.29 0.21 0.25 0.30 0.27 0.31 0.30 0.29 0.27 0.27 0.33 0.23 0.31 0.32 0.30 0.32 0.36 0.38 0.41 0.64 0.80 0.75 0.71 0.66 0.64 0.69 0.79 0.87 0.93 0.97 1.01 1.02 1.05 1.07 1.04 1.06 0.98 0.89 0.84 0.80 0.83 0.78
0.32 0.36 0.33 0.31 0.33 0.32 0.32 0.30 0.29 0.30 0.28 0.22 0.26 0.26 0.29 0.30 0.32 0.36 0.43 0.47 0.47 0.50 0.53 0.56 0.60 0.61 0.62 0.64 0.71 0.79 0.85 0.89 0.96 0.95 0.95 0.92 0.85 0.82 0.76 0.73 0.72 0.70 0.74 0.78
0.31 0.32 0.35 0.36 0.32 0.34 0.31 0.27 0.21 0.19 0.20 0.20 0.26 0.28 0.28 0.42 0.42 0.46 0.46 0.47 0.53 0.56 0.60 0.60 0.61 0.61 0.66 0.67 0.71 0.76 0.82 0.81 0.87 0.87 0.87 0.84 0.82 0.80 0.74 0.75 0.74 0.75 0.77 0.80
0.27 0.22 0.31 0.37 0.32 0.33 0.32 0.33 0.23 0.18 0.18 0.19 0.27 0.24 0.27 0.43 0.44 0.48 0.50 0.51 0.55 0.55 0.60 0.61 0.65 0.67 0.70 0.73 0.76 0.77 0.79 0.76 0.80 0.82 0.81 0.81 0.82 0.77 0.78 0.80 0.83 0.83 0.81 0.84
0.33 0.30 0.36 0.35 0.38 0.37 0.38 0.33 0.36 0.32 0.30 0.25 0.26 0.30 0.44 0.43 0.43 0.46 0.48 0.52 0.52 0.55 0.58 0.61 0.66 0.70 0.69 0.71 0.74 0.77 0.76 0.75 0.76 0.77 0.78 0.78 0.79 0.77 0.78 0.80 0.83 0.86 0.92 0.94
0.41 0.31 0.39 0.35 0.40 0.42 0.41 0.43 0.29 0.29 0.23 0.20 0.28 0.31 0.28 0.37 0.40 0.45 0.47 0.48 0.51 0.54 0.56 0.58 0.61 0.63 0.65 0.68 0.71 0.73 0.73 0.73 0.75 0.77 0.77 0.76 0.76 0.76 0.79 0.80 0.80 0.82 0.83 0.85
0.45 0.42 0.45 0.48 0.38 0.34 0.34 0.32 0.35 0.40 0.32 0.26 0.23 0.31 0.44 0.47 0.46 0.45 0.47 0.50 0.51 0.53 0.55 0.57 0.59 0.60 0.62 0.64 0.64 0.67 0.67 0.68 0.69 0.72 0.72 0.73 0.75 0.76 0.79 0.80 0.82 0.81 0.82 0.83
0.44 0.43 0.41 0.42 0.57 0.54 0.53 0.42 0.37 0.28 0.29 0.29 0.30 0.34 0.53 0.53 0.50 0.51 0.49 0.52 0.55 0.56 0.57 0.59 0.59 0.61 0.62 0.64 0.65 0.66 0.68 0.67 0.69 0.72 0.73 0.73 0.76 0.76 0.76 0.75 0.75 0.76 0.74 0.76
0.52 0.43 0.38 0.42 0.47 0.51 0.45 0.49 0.48 0.45 0.44 0.39 0.29 0.33 0.55 0.54 0.55 0.56 0.54 0.56 0.58 0.60 0.62 0.63 0.63 0.63 0.64 0.66 0.66 0.67 0.68 0.69 0.72 0.73 0.73 0.73 0.72 0.72 0.72 0.71 0.72 0.72 0.70 0.68
0.56 0.51 0.45 0.36 0.44 0.44 0.40 0.45 0.48 0.45 0.38 0.37 0.41 0.49 0.56 0.60 0.58 0.60 0.61 0.63 0.64 0.66 0.67 0.69 0.70 0.69 0.70 0.71 0.71 0.70 0.70 0.70 0.69 0.69 0.68 0.66 0.66 0.65 0.64 0.63 0.62 0.62 0.63 0.63
0.54 0.42 0.47 0.51 0.52 0.50 0.45 0.44 0.42 0.36 0.35 0.29 0.34 0.38 0.54 0.56 0.59 0.62 0.65 0.65 0.63 0.63 0.63 0.64 0.65 0.67 0.68 0.69 0.69 0.67 0.65 0.62 0.60 0.56 0.53 0.51 0.51 0.52 0.53 0.55 0.59 0.63 0.66 0.67
0.59 0.40 0.42 0.42 0.51 0.48 0.42 0.41 0.40 0.36 0.37 0.35 0.34 0.32 0.44 0.51 0.55 0.53 0.53 0.53 0.53 0.52 0.53 0.55 0.58 0.59 0.58 0.57 0.56 0.53 0.50 0.48 0.47 0.45 0.44 0.47 0.50 0.53 0.56 0.61 0.64 0.66 0.68 0.73
0.52 0.44 0.38 0.31 0.37 0.37 0.26 0.23 0.26 0.30 0.33 0.33 0.29 0.37 0.45 0.42 0.42 0.45 0.46 0.47 0.48 0.49 0.50 0.51 0.52 0.51 0.50 0.50 0.49 0.45 0.45 0.47 0.46 0.47 0.50 0.52 0.54 0.55 0.61 0.66 0.70 0.75 0.80 0.83
0.48 0.48 0.40 0.29 0.27 0.16 0.31 0.36 0.29 0.26 0.31 0.32 0.35 0.39 0.43 0.47 0.50 0.52 0.53 0.53 0.52 0.53 0.54 0.54 0.53 0.52 0.52 0.51 0.49 0.49 0.48 0.48 0.49 0.49 0.51 0.55 0.62 0.68 0.74 0.77 0.79 0.78 0.74 0.68
0.48 0.39 0.30 0.24 0.21 0.27 0.30 0.36 0.35 0.35 0.36 0.45 0.43 0.44 0.46 0.50 0.52 0.51 0.56 0.57 0.55 0.54 0.52 0.50 0.49 0.48 0.48 0.47 0.47 0.46 0.46 0.48 0.50 0.52 0.62 0.72 0.76 0.77 0.74 0.68 0.65 0.66 0.65 0.64
0.41 0.38 0.29 0.26 0.20 0.17 0.35 0.44 0.50 0.44 0.34 0.48 0.49 0.47 0.48 0.48 0.39 0.47 0.55 0.53 0.50 0.49 0.47 0.45 0.45 0.45 0.44 0.45 0.46 0.44 0.45 0.50 0.57 0.70 0.77 0.78 0.70 0.64 0.62 0.62 0.61 0.60 0.59 0.57
0.30 0.30 0.23 0.24 0.24 0.28 0.45 0.47 0.50 0.29 0.39 0.51 0.50 0.48 0.46 0.42 0.45 0.49 0.49 0.46 0.44 0.42 0.41 0.41 0.41 0.41 0.43 0.45 0.46 0.46 0.54 0.66 0.78 0.81 0.74 0.66 0.63 0.60 0.60 0.58 0.57 0.57 0.58 0.58
0.28 0.26 0.25 0.28 0.25 0.23 0.50 0.49 0.38 0.49 0.53 0.51 0.51 0.49 0.46 0.45 0.43 0.40 0.40 0.39 0.39 0.38 0.38 0.39 0.40 0.42 0.45 0.47 0.51 0.62 0.72 0.82 0.80 0.72 0.65 0.63 0.61 0.60 0.59 0.57 0.57 0.58 0.59 0.58
0.31 0.40 0.32 0.34 0.36 0.51 0.56 0.56 0.59 0.58 0.52 0.51 0.49 0.47 0.43 0.39 0.38 0.38 0.36 0.37 0.38 0.39 0.40 0.42 0.43 0.43 0.49 0.59 0.72 0.79 0.80 0.77 0.69 0.66 0.62 0.63 0.62 0.59 0.59 0.56 0.57 0.57 0.61 0.60
0.47 0.50 0.40 0.40 0.49 0.49 0.52 0.55 0.57 0.57 0.52 0.50 0.47 0.42 0.39 0.36 0.36 0.35 0.36 0.38 0.39 0.41 0.43 0.45 0.46 0.52 0.67 0.80 0.84 0.79 0.74 0.69 0.67 0.62 0.64 0.65 0.57 0.55 0.58 0.60 0.61 0.61 0.63 0.63
0.47 0.47 0.44 0.46 0.51 0.53 0.54 0.55 0.53 0.50 0.48 0.44 0.40 0.37 0.35 0.34 0.35 0.37 0.38 0.40 0.43 0.46 0.47 0.53 0.65 0.75 0.78 0.80 0.76 0.73 0.70 0.69 0.65 0.66 0.67 0.60 0.54 0.57 0.59 0.63 0.65 0.65 0.69 0.72
0.52 0.47 0.41 0.40 0.52 0.52 0.51 0.53 0.51 0.45 0.40 0.36 0.35 0.33 0.35 0.35 0.36 0.40 0.42 0.46 0.48 0.50 0.63 0.72 0.74 0.77 0.76 0.73 0.72 0.70 0.71 0.71 0.68 0.67 0.67 0.57 0.53 0.57 0.62 0.64 0.66 0.73 0.75 0.79
Wind_Speed
22 20 22 20 21 19 13 15 18 22 24 32 38 43 42 44 42 40 42 45 46 47 50 42 35 34 32 30 30 30 30 29 29 29 29 29 30 30 29 29 29 28 29 29
20 24 21 19 20 19 17 16 16 15 18 25 30 33 38 39 42 40 38 40 46 49 47 42 37 36 32 30 32 33 33 31 29 28 28 27 27 27 27 27 28 29 29 29
22 18 22 20 20 20 18 17 15 13 9 14 20 27 28 33 33 34 34 33 39 47 47 39 38 36 34 30 31 33 32 30 29 26 25 23 23 23 24 25 25 26 27 27
25 21 20 23 22 21 19 18 17 15 12 14 19 15 24 26 28 29 29 28 26 39 43 37 35 35 33 31 30 30 29 28 28 27 26 26 25 25 26 26 27 26 27 28
22 23 21 25 21 20 18 16 17 17 18 18 14 15 15 21 21 25 25 23 25 25 39 38 37 33 31 26 25 25 26 26 26 27 27 27 27 26 26 26 27 28 30 31
23 19 23 21 19 19 18 20 17 18 19 20 19 16 12 16 18 19 17 15 15 20 21 25 25 26 24 25 24 24 25 25 25 25 25 26 26 27 27 28 29 31 31 32
24 23 21 18 17 15 17 16 13 15 18 18 21 17 12 8 12 14 14 12 13 14 17 17 18 20 20 21 22 23 23 23 24 25 26 27 27 28 28 29 30 32 33 34
22 24 26 20 21 16 20 19 14 15 16 18 14 16 14 11 12 13 13 12 12 12 13 14 15 16 17 18 20 21 23 23 24 25 26 27 28 29 30 31 33 34 35 37
22 23 22 26 21 22 18 19 17 13 12 11 14 13 10 11 14 13 13 13 11 11 12 12 13 14 15 17 18 20 21 23 24 25 25 26 28 29 31 33 35 37 39 40
16 19 18 21 22 21 19 19 16 17 15 17 11 15 13 16 15 14 13 12 12 12 11 12 12 13 14 16 17 18 19 21 23 24 25 27 29 31 34 36 38 40 42 44
16 14 13 16 21 22 21 21 19 13 17 16 15 12 10 14 14 14 13 12 12 12 11 12 12 13 14 15 16 17 19 21 23 26 28 30 33 36 38 39 41 43 44 46
21 16 16 17 10 14 14 17 22 18 18 16 15 10 10 12 13 14 13 12 12 12 12 12 13 14 15 16 17 19 21 24 26 29 32 34 36 38 41 42 44 46 47 48
19 14 15 12 15 16 16 15 16 14 13 17 18 13 13 13 14 14 14 13 13 14 14 14 15 16 18 19 21 23 25 27 30 33 35 37 39 41 43 45 46 48 50 51
21 15 16 12 9 15 17 16 15 16 15 17 17 12 16 15 14 14 15 15 15 15 16 16 18 19 21 23 25 27 29 30 32 35 37 39 41 43 45 47 48 49 49 50
17 17 19 15 10 11 11 13 13 14 12 12 9 12 13 15 14 14 15 16 16 17 18 18 20 21 23 25 26 28 30 32 34 36 38 40 42 44 45 46 47 47 48 49
13 12 15 13 15 13 12 12 13 13 12 13 11 12 12 11 13 13 15 16 17 17 18 20 21 22 24 26 28 29 31 33 35 37 39 40 42 43 44 45 46 47 48 48
13 14 15 12 12 12 13 16 15 14 12 13 14 10 9 12 13 13 14 15 15 17 19 21 22 23 25 26 28 30 32 34 36 37 39 40 41 42 43 44 45 45 45 46
15 13 10 9 12 12 6 9 9 13 10 11 10 8 8 9 10 11 10 11 14 17 20 22 23 25 26 28 30 31 33 34 36 37 37 38 39 40 41 42 42 43 44 44
13 12 10 10 12 6 8 7 9 9 8 7 8 8 8 9 11 10 11 14 17 19 21 22 24 26 28 29 30 31 32 33 34 34 34 34 35 37 37 38 39 41 42 44
11 11 10 11 10 10 8 8 7 9 7 8 8 7 8 11 12 9 14 17 19 20 22 24 26 27 28 29 30 30 30 30 29 29 29 30 31 33 35 38 40 42 42 43
12 11 11 10 8 7 8 8 8 10 7 7 6 6 7 9 11 16 18 19 20 22 24 25 26 27 27 28 28 28 27 25 24 24 25 27 30 33 35 37 38 39 40 40
11 11 10 10 9 8 9 9 8 7 7 6 6 7 9 11 14 16 19 21 22 24 25 26 26 26 26 25 24 22 19 18 19 22 24 27 29 31 33 36 36 37 37 37
11 9 10 9 8 6 6 6 6 7 6 6 6 8 10 13 15 18 21 22 23 24 24 24 24 23 21 19 15 13 13 16 17 20 22 26 29 30 32 34 35 35 34 32
10 10 9 10 10 8 7 6 5 5 5 6 7 9 11 14 17 20 22 22 22 22 22 21 19 17 14 11 9 10 12 14 16 19 22 26 27 29 32 33 33 27 25 23
9 11 11 8 10 9 8 6 6 5 5 6 7 9 12 14 18 20 20 19 19 19 17 15 13 9 7 6 8 9 11 13 15 18 22 25 25 28 30 31 27 25 21 18
11 10 11 10 14 10 10 8 7 6 5 5 7 9 12 15 18 18 17 17 16 14 11 8 5 4 5 5 7 8 11 13 15 18 21 23 23 26 28 27 25 20 17 15
Wind_Direction
216 221 222 224 228 235 258 253 250 248 244 237 233 234 230 229 233 235 233 233 232 228 230 233 240 245 241 239 240 237 236 239 239 241 244 247 250 250 251 252 251 252 255 257
215 225 223 227 223 231 244 255 252 263 241 239 232 235 232 229 230 233 234 236 233 230 227 232 241 239 239 246 241 237 237 237 238 243 245 247 248 248 250 250 251 253 255 258
217 223 223 222 222 227 233 246 244 251 265 219 227 234 228 225 226 227 231 236 234 228 220 231 238 232 241 245 243 238 236 233 235 238 240 244 244 246 246 248 250 252 254 257
224 221 217 219 223 222 236 230 241 245 242 225 219 231 217 218 221 222 225 232 230 217 220 230 238 238 240 249 240 235 229 230 234 238 241 243 245 247 249 251 253 254 256 260
218 219 217 216 219 224 237 230 232 239 239 242 223 231 224 203 213 216 222 228 227 221 228 237 239 241 241 234 228 227 227 230 234 238 242 245 249 250 251 253 255 257 260 263
224 220 217 219 220 227 235 231 236 237 235 233 231 223 205 196 208 198 201 208 213 210 214 219 224 225 223 224 225 227 227 232 235 240 244 247 250 253 255 257 259 262 264 266
219 215 216 215 215 217 209 209 215 218 221 229 222 219 223 174 193 195 195 192 197 199 202 205 209 216 220 223 226 229 231 238 242 245 248 251 254 255 258 261 264 266 268 269
213 217 214 211 220 209 211 214 222 215 216 219 207 221 227 208 194 193 187 188 191 194 204 207 213 219 223 228 232 236 239 244 247 250 252 254 255 258 261 264 267 269 270 271
215 221 214 220 216 222 207 219 231 242 230 230 201 204 205 200 194 192 191 195 199 203 208 209 213 220 228 234 239 243 245 246 250 252 254 256 259 262 265 268 270 271 272 274
218 213 211 211 218 220 228 218 213 224 229 227 207 201 222 200 197 200 201 200 203 209 212 217 223 229 235 239 242 245 248 250 252 255 258 261 264 267 269 272 273 274 275 276
204 204 208 199 212 215 215 220 225 235 233 225 227 231 200 198 204 207 207 206 209 213 217 222 228 235 240 244 247 249 252 255 258 261 264 267 270 272 274 275 276 277 277 278
206 214 201 213 209 220 220 224 224 225 225 234 242 229 225 209 210 208 207 211 215 218 224 231 237 244 248 251 254 257 260 263 266 268 270 272 274 276 277 278 278 279 279 279
192 200 199 202 210 214 220 221 225 232 237 225 230 231 224 217 212 212 214 218 223 229 237 245 250 254 258 261 264 267 269 271 272 274 275 277 278 279 280 280 280 281 281 280
194 209 214 219 236 203 208 214 217 222 230 239 239 208 217 213 216 219 224 228 234 241 247 253 259 263 266 268 270 273 274 276 278 279 280 280 281 281 282 282 282 282 282 282
197 209 208 207 212 203 204 204 209 219 228 227 222 224 208 215 219 226 233 238 243 248 255 262 266 269 272 273 275 276 278 280 281 282 283 284 284 284 284 284 284 284 283 283
199 194 191 197 213 221 222 222 226 229 225 233 227 232 234 231 237 235 242 249 253 257 264 268 272 275 277 278 279 281 283 284 285 286 286 287 287 287 287 286 286 285 285 285
191 188 197 201 210 221 235 232 228 230 230 236 238 244 225 237 240 244 249 255 258 263 270 274 277 279 281 282 284 285 287 288 288 289 289 290 290 289 288 288 288 287 287 286
189 193 205 203 205 225 229 230 231 223 231 229 233 234 237 238 245 252 258 261 269 275 278 279 280 282 283 285 287 289 290 290 291 291 292 292 292 292 291 291 290 290 289 288
198 198 200 207 213 217 215 204 202 201 202 223 212 223 240 250 248 245 264 277 280 282 282 283 285 286 287 288 290 291 292 292 293 294 295 295 296 296 296 295 294 294 292 291
186 193 199 198 211 219 191 211 226 230 215 228 234 245 263 270 261 249 283 287 287 286 287 288 289 289 289 290 292 292 293 294 295 296 298 300 301 301 301 300 299 297 295 293
186 194 202 203 217 219 212 223 226 230 225 223 237 260 275 277 276 283 289 290 290 291 292 292 292 291 291 292 292 292 292 293 295 299 303 306 307 307 306 305 304 302 300 297
194 194 204 210 217 221 213 214 240 214 213 231 254 275 283 287 289 292 293 294 294 294 295 294 293 292 291 291 292 291 291 294 300 305 308 312 313 314 314 313 310 308 306 302
197 208 200 213 211 190 193 194 209 217 222 245 264 282 291 296 300 301 299 298 297 296 296 295 294 292 291 292 288 286 292 302 307 312 316 318 320 320 322 320 317 315 313 307
196 199 200 193 188 183 186 198 208 215 230 254 274 288 299 303 307 306 302 300 299 299 298 296 294 292 290 285 284 292 303 310 316 320 323 326 327 328 329 329 327 326 327 326
205 196 190 170 183 189 203 203 210 223 245 269 282 294 305 311 314 313 307 304 302 301 299 296 291 283 285 293 301 306 313 319 322 326 331 334 335 337 338 338 337 334 333 334
196 197 204 217 201 218 200 208 216 231 257 280 299 304 311 316 319 318 313 311 308 304 300 294 289 297 306 308 316 322 326 325 327 332 337 340 341 345 345 348 348 352 352 355